Find Starlink 33782

NORAD ID: 64332 Int'l Des: 2025-124 Owner: SPXS Country: US Constellation: starlink operational
LEOCIRCULAR

現在のビュー

3D地球を読み込み中...

About Starlink 33782

Starlink 33782 (NORAD 64332) is a starlink constellation satellite (v2 mini) launched Jun 10, 2025 by SPXS of US. It operates in LEO, CIRCULAR orbit with a mass of 575.00 kg.

次回通過

Passes for default location (London). Set your location on the main map for personalized predictions.

高度履歴

Loading altitude history...

軌道要素

1 64332U 25124R 26236.41833921 .00021675 00000-0 79461-3 0 9993
2 64332 42.9990 254.3501 0001501 274.1526 85.9154 15.27589555 67431
Epoch: Aug 24, 2026 • Age: 26 hours

現在のステータス

高度 486.8 km
遠地点 / 近地点 N/A
速度 7.63 km/s
衛星直下点 41.86°N, 152.23°W
打ち上げ日 Jun 10, 2025
運用期間 1.2 years
タイプ internet

技術仕様

分類 Payload
質量 575.00 kg
乾燥質量 530.00 kg
総質量 575.00 kg
長さ 0.30 m
直径 4.10 m
スパン 29.00 m
形状 Box + pan
製造者 SPXS
バスタイプ Starlink V2MO
フェーズステータス In Orbit
所有者/国 SPXS/US

Most Searched